West Tisbury, MA

6:45 AM EDT on August 30, 2016 (GMT -0400)
Martha's Vineyard

Weather History for KMVY - January, 2012

Change the Weather History Date:

Monday, January 23, 2012

  Actual Average Record
Temperature  
Mean Temperature 44 °F -  
Max Temperature 53 °F 37 °F 54 °F (1958)
Min Temperature 35 °F 21 °F -5 °F (1970)
Degree Days  
Heating Degree Days 21    
Moisture  
Dew Point 41 °F    
Average Humidity 86    
Maximum Humidity 97    
Minimum Humidity 72    
Precipitation  
Precipitation 0.22 in - - ()
Sea Level Pressure  
Sea Level Pressure 30.18 in    
Wind  
Wind Speed 8 mph (SE)    
Max Wind Speed 15 mph    
Max Gust Speed 23 mph    
Visibility 5 miles    
Events Fog , Rain    
Averages and records for this station are not official NWS values.
T = Trace of Precipitation, MM = Missing Value Source: NWS Daily Summary

Daily Weather History Graph

Daily Weather History Graph

Search for Another Location

Airport or City:

Trip Planner

Search our weather history database for the weather conditions in past years. The results will help you decide how hot, cold, wet, or windy it might be!

Date:

Astronomy

Jan. 23, 2012 Rise Set
Actual Time 7:02 AM EST 4:46 PM EST
Civil Twilight 6:32 AM EST 5:16 PM EST
Nautical Twilight 5:58 AM EST 5:50 PM EST
Astronomical Twilight 5:25 AM EST 6:23 PM EST
Moon 6:55 AM EST (1/23) 5:32 PM EST (1/23)
Length of Visible Light 10h 44m
Length of Day
9h 44m
New Moon, 0% of the Moon is Illuminated
Jan 23
New Moon
Jan 30
First Quarter
Feb 7
Full
Feb 14
Last Quarter
Feb 21
New

Hourly Weather History & Observations

Time (EST) Temp. Windchill Dew Point Humidity Pressure Visibility Wind Dir Wind Speed Gust Speed Precip Events Conditions
12:53 AM 35.1 °F 30.1 °F 27.0 °F 72% 30.48 in 10.0 mi East 5.8 mph - N/A   Overcast
1:53 AM 36.0 °F 32.1 °F 28.0 °F 73% 30.48 in 10.0 mi ENE 4.6 mph - N/A   Overcast
2:53 AM 36.0 °F 30.3 °F 28.9 °F 76% 30.45 in 10.0 mi East 6.9 mph - N/A   Overcast
3:53 AM 37.0 °F 31.6 °F 30.0 °F 76% 30.42 in 10.0 mi East 6.9 mph - N/A   Overcast
4:53 AM 37.0 °F 33.3 °F 30.0 °F 76% 30.41 in 10.0 mi East 4.6 mph - N/A   Overcast
5:53 AM 37.9 °F - 30.9 °F 76% 30.40 in 10.0 mi Calm Calm - N/A   Overcast
8:53 AM 39.9 °F - 35.1 °F 83% 30.34 in 10.0 mi Calm Calm - N/A   Overcast
9:53 AM 43.0 °F 38.8 °F 37.9 °F 82% 30.33 in 10.0 mi SSE 6.9 mph - N/A   Overcast
10:53 AM 44.1 °F 39.0 °F 37.9 °F 79% 30.29 in 10.0 mi SE 9.2 mph 18.4 mph N/A   Overcast
11:00 AM 44.6 °F 38.8 °F 37.4 °F 76% 30.29 in 10.0 mi SE 11.5 mph - N/A   Overcast
11:53 AM 44.1 °F 37.4 °F 37.9 °F 79% 30.26 in 10.0 mi SE 13.8 mph 20.7 mph N/A   Mostly Cloudy
1:53 PM 44.1 °F 37.1 °F 39.0 °F 82% 30.19 in 10.0 mi ESE 15.0 mph 23.0 mph N/A   Overcast
2:53 PM 45.0 °F 38.2 °F 39.9 °F 82% 30.17 in 9.0 mi SE 15.0 mph - 0.00 in Rain Light Rain
3:53 PM 45.0 °F 38.9 °F 41.0 °F 86% 30.14 in 10.0 mi SE 12.7 mph - 0.01 in Rain Light Rain
4:13 PM 44.6 °F 38.8 °F 42.8 °F 93% 30.14 in 3.0 mi SE 11.5 mph - 0.01 in Rain Light Rain
4:19 PM 44.6 °F 39.2 °F 42.8 °F 93% 30.14 in 2.5 mi SE 10.4 mph - 0.01 in Rain Light Rain
4:31 PM 44.6 °F 38.8 °F 42.8 °F 93% 30.14 in 4.0 mi SE 11.5 mph - 0.02 in Rain Light Rain
4:53 PM 46.0 °F 40.6 °F 43.0 °F 89% 30.13 in 4.0 mi SE 11.5 mph - 0.06 in Rain Rain
5:53 PM 46.0 °F 40.6 °F 44.1 °F 93% 30.11 in 3.0 mi SE 11.5 mph - 0.06 in Rain Light Rain
6:03 PM 46.4 °F 40.7 °F 44.6 °F 93% 30.11 in 1.8 mi SE 12.7 mph - 0.00 in Rain Light Rain
6:40 PM 48.2 °F - 46.4 °F 93% 30.09 in 0.8 mi ESE 11.5 mph - 0.01 in Rain Light Rain
6:51 PM 48.2 °F - 46.4 °F 93% 30.08 in 1.2 mi SSE 5.8 mph - 0.02 in Rain Light Rain
6:53 PM 48.0 °F - 46.9 °F 96% 30.09 in 1.2 mi South 5.8 mph - 0.02 in Rain Light Rain
7:26 PM 48.2 °F - 46.4 °F 93% 30.06 in 0.8 mi ESE 9.2 mph - 0.01 in Rain Light Rain
7:53 PM 48.9 °F - 46.9 °F 93% 30.05 in 0.8 mi ESE 9.2 mph - 0.02 in   Mist
8:53 PM 48.0 °F - 46.9 °F 96% 30.02 in 0.5 mi South 5.8 mph - 0.00 in Fog , Rain Light Rain
9:26 PM 51.8 °F - 48.2 °F 88% 30.01 in 0.5 mi South 9.2 mph - 0.00 in Fog , Rain Light Rain
9:53 PM 48.9 °F - 48.0 °F 97% 30.00 in 0.5 mi South 9.2 mph - 0.01 in Fog , Rain Light Rain
10:53 PM 52.0 °F - 50.0 °F 93% 29.97 in 0.8 mi South 13.8 mph - 0.02 in   Mist
11:28 PM 53.6 °F - 51.8 °F 94% 29.95 in 1.0 mi South 12.7 mph - 0.01 in Rain Light Rain
11:53 PM 53.1 °F - 51.1 °F 93% 29.94 in 3.0 mi SSW 15.0 mph - 0.02 in Rain Light Rain